Hourly Data Report for October 04, 2014

All times are specified in Local Standard Time (LST). Add 1 hour to adjust for Daylight Saving Time where and when it is observed.

POND INLET A
NUNAVUT

72°41'22.000" N
77°58'08.000" W
61.60 m
2403206
71095
YIO

Download Data

Hourly Data (October 2014)
Hourly Data Report for October 4, 2014
Temp Definition
°C
Dew Point Temp Definition
°C
Rel Hum Definition
%
Wind Dir Definition
10's deg

Wind Spd Definition
km/h
Visibility Definition
km
Stn Press Definition
kPa
Hmdx Definition


Wind Chill Definition


Weather Definition


TIME
00:00 Legend Double Dagger -6.7 -8.8 85 15 18 16.1 101.08   -13 LegendNANA
01:00 Legend Double Dagger -6.3 -8.4 85 17 21 16.1 101.08   -13 LegendNANA
02:00 Legend Double Dagger -6.9 -8.9 86 16 22 16.1 101.11   -14 LegendNANA
03:00 Legend Double Dagger -6.7 -8.8 85 15 18 16.1 101.12   -13 LegendNANA
04:00 Legend Double Dagger -6.4 -8.4 86 16 17 16.1 101.14   -13 LegendNANA
05:00 Legend Double Dagger -6.5 -8.7 85 16 18 16.1 101.14   -13 LegendNANA
06:00 Legend Double Dagger -6.8 -8.9 85 16 21 16.1 101.17   -14 LegendNANA
07:00 Legend Double Dagger -7.2 -9.3 85 15 22 16.1 101.17   -15 LegendNANA
08:00 Legend Double Dagger -6.8 -8.9 85 16 15 16.1 101.20   -13 LegendNANA
09:00 Legend Double Dagger -6.9 -8.9 86 16 17 16.1 101.19   -13 LegendNANA
10:00 Legend Double Dagger -6.9 -9.0 85 16 18 16.1 101.18   -14 LegendNANA
11:00 Legend Double Dagger -7.1 -9.1 86 16 18 16.1 101.19   -14 LegendNANA
12:00 Legend Double Dagger -6.8 -8.8 86 16 21 16.1 101.20   -14 LegendNANA
13:00 Legend Double Dagger -6.6 -8.8 85 16 21 16.1 101.23   -14 LegendNANA
14:00 Legend Double Dagger -6.7 -8.7 86 16 17 16.1 101.25   -13 LegendNANA
15:00 Legend Double Dagger -6.8 -8.9 85 15 18 16.1 101.23   -13 LegendNANA
16:00 Legend Double Dagger -7.1 -9.1 86 16 18 16.1 101.27   -14 LegendNANA
17:00 Legend Double Dagger -7.1 -8.9 87 15 18 16.1 101.31   -14 LegendNANA
18:00 Legend Double Dagger -6.9 -8.9 86 15 18 16.1 101.33   -14 LegendNANA
19:00 Legend Double Dagger -6.9 -8.9 86 15 18 16.1 101.34   -14 LegendNANA
20:00 Legend Double Dagger -7.3 -9.4 85 16 21 16.1 101.36   -15 LegendNANA
21:00 Legend Double Dagger -7.5 -9.5 86 15 22 16.1 101.37   -15 LegendNANA
22:00 Legend Double Dagger -7.8 -9.9 85 15 22 16.1 101.39   -15 LegendNANA
23:00 Legend Double Dagger -7.7 -9.8 85 15 18 16.1 101.42   -15 LegendNANA

Notes on Data Quality.

Legend

  • E = Estimated
  • M = Missing
  • NA = Not Available
  • ‡ = Partner data that is not subject to review by the National Climate Archives
Date modified: